Regional Weather Roundup
Issued by NWS

Home | Current Version | Previous Version | Graphics & Text | Print | Product List | Glossary On
Versions: 1 2 3 4 5 6 7 8 9 10 11 12 13 14 15 16 17 18 19 20 21 22 23 24 25 26 27 28 29 30 31 32 33 34 35 36 37 38 39 40 41 42 43 44 45 46 47 48 49 50
000
ASUS43 KBIS 031402
RWRND

NORTH DAKOTA REGIONAL WEATHER ROUNDUP
NATIONAL WEATHER SERVICE BISMARCK ND
900 AM CDT MON AUG 03 2015

NOTE: "FAIR" INDICATES FEW OR NO CLOUDS BELOW 12,000 FEET WITH NO
SIGNIFICANT WEATHER AND/OR OBSTRUCTIONS TO VISIBILITY.


NDZ001>003-009>011-017-031500-
NORTHWEST NORTH DAKOTA

CITY           SKY/WX    TMP DP  RH WIND       PRES   REMARKS
WILLISTON      SUNNY     62  50  64 CALM      30.06R
MINOT          SUNNY     64  50  60 W6        30.02R
$$

NDZ018>021-031>035-040>046-031500-
SOUTHWEST NORTH DAKOTA

CITY           SKY/WX    TMP DP  RH WIND       PRES   REMARKS
BISMARCK       SUNNY     62  53  72 SW7       30.04R
DICKINSON      SUNNY     63  51  65 CALM      30.05S
GARRISON         N/A     63  55  75 VRB3      30.03S
HETTINGER ARPT SUNNY     64  52  64 CALM      30.07S
$$

NDZ004>008-012>016-024-026-027-054-031500-
NORTHEAST NORTH DAKOTA

CITY           SKY/WX    TMP DP  RH WIND       PRES   REMARKS
GRAND FORKS    SUNNY     63  53  70 NW8       29.93R
DEVILS LAKE    SUNNY     63  50  63 N12       29.97S
$$

NDZ022-023-025-028>030-036>039-047>053-031500-
SOUTHEAST NORTH DAKOTA

CITY           SKY/WX    TMP DP  RH WIND       PRES   REMARKS
FARGO          SUNNY     64  53  67 N6        29.94R
JAMESTOWN      SUNNY     64  54  69 NW9       29.99R
$$




USA.gov is the U.S. government's official web portal to all federal, state and local government web resources and services.